Dauntless Aviation
Airports Asia China
ZGSZ
SZX

Shenzhen Bao'an International Airport

Bao'an, Shenzhen, CHINA

Airport Info
Suggest Updated Information for this Airport

Location

Latitude / Longitude: 22°38'21"N / 113°48'39"E
  22°38.358'N / 113°48.66'E
  22.6393 / 113.8110

Nearby radio navigation aids

QJ SHENZHEN NDB. 155.7° 10.4nm from QJ to field.
SZX SHENZHEN VOR/DME on field.

Runway Information

Runway 15 /33

Dimensions: 11155 x 148 ft.
Surface: ASP
 
Runway 15
Runway 33
Latitude: 22.651889 22.624778
Longitude: 113.803903 113.819431
Elevation: 12 ft. 12 ft.
Runway true heading: 153 333
 

Instrument Procedures

  Parking / Docking Chart
  Aerodrome Chart
  Aerodrome Chart

STARs (Standard Terminal Arrivals)

  STAR RNAV Rwy 15/16
  STAR RNAV Rwy 33/34
  STAR Rwy 15/16
  STAR Rwy 33/34
  STAR Rwy 15/16
  STAR Rwy 33/34

IAPs (Instrument Approach Procedures)

  Aerodrome Textual Information 01
  Aerodrome Textual Information 02
  Aerodrome Textual Information 03
  Aerodrome Textual Information 04
  Aerodrome Textual Information 05
  Aerodrome Textual Information 06
  Aerodrome Textual Information 07
  Aerodrome Textual Information 08
  Aerodrome Textual Information 09
  Aerodrome Textual Information 10
  Aerodrome Textual Information 11
  Aerodrome Textual Information 12
  Aerodrome Textual Information 13
  Aerodrome Textual Information 14
  Aerodrome Textual Information 15
  Aerodrome Textual Information 16
  Aerodrome Textual Information 17
  Aerodrome Textual Information 18
  Aerodrome Textual Information 19
  Aerodrome Textual Information 20
  Aerodrome Textual Information 21
  Aerodrome Textual Information 22
  Aerodrome Textual Information 23
  Aerodrome Textual Information 24
  Aerodrome Textual Information 25
  Aerodrome Textual Information 26
  Aerodrome Textual Information 27
  Aerodrome Textual Information 28
  Aerodrome Textual Information 29
  Aerodrome Textual Information 30
  Aerodrome Textual Information 31
  Aerodrome Textual Information 32
  Aerodrome Textual Information 33
  Aerodrome Textual Information 34
  Aerodrome Textual Information 35
  RNAV ILS/DME Z Rwy 15
  RNAV ILS/DME Z Rwy 16
  RNAV ILS/DEM Z Rwy 33
  RNAV ILS/DME Z Rwy 34
  ILS/DME Y Rwy 15
  ILS/DME Y Rwy 16
  ILS/DME Y Rwy 33
  ILS/DME X Rwy 33 SHK U/S
  ILS DME Y Rwy 34
  ILS/DME X Rwy 34 SHK U/S
  Aircraft Standard Push Back Procedure
  Aircraft Standard Push Back Procedure 2
  Operational Rules for A380
  Aerodrome Obstacle Chart Rwy 15/33
  Aerodrome Obstacle Chart Rwy 16/34

Departure Procedures

  SID RNAV Rwy 15
  SID RNAV Rwy 16
  SID RNAV Rwy 33
  SID RNAV Rwy 34
  SID Rwy 15
  SID Rwy 16
  SID Rwy 33
  SID Rwy 34
  SID Rwy 15
  SID Rwy 16
  SID Rwy 33
  SID Rwy 34
Satellite photo at:
Airport distance calculator
From:
Weather Reports

METAR

ZGSZ

ZGSZ 170400Z 02002MPS 330V080 9999 -RA SCT018 OVC040 26/20 Q1016 NOSIG
VHHH
20.2nm SE
VHHH 170430Z 10007KT 9999 FEW008 SCT020 23/21 Q1016 NOSIG
VMMC
32.0nm S
VMMC 170430Z 12008KT 6000 -SHRA FEW007 SCT018 23/21 Q1016 TEMPO 4500 SHRA

TAF

ZGSZ
TAF ZGSZ 162123Z 1700/1724 05004MPS 6000 BKN035 TX27/1706Z TN22/1722Z TEMPO 1700/1704 SHRA SCT010 FEW020CB BKN030 BECMG 1705/1706 19004MPS
VHHH
20.2nm SE
TAF AMD VHHH 170326Z 1703/1806 09010KT 7000 FEW015 SCT030 TX25/1706Z TX26/1806Z TN22/1723Z TEMPO 1703/1712 4000 -RA BR TEMPO 1721/1803 09015G25KT
VMMC
32.0nm S
TAF VMMC 162300Z 1700/1806 06008KT 9999 FEW010 SCT030 TEMPO 1700/1706 3500 SHRA TEMPO 1721/1806 08015G25KT
Safelog

 

Dauntless Aviation

© 2007-2021 Dauntless Aviation, all rights reserved
Information provided via PilotNav comes from a variety of official and unofficial data sources. As errors are possible, do not use PilotNav for primary flight planning purposes. Verify any information that you receive via PilotNav with current and canonical charts and other official documents. The material in this database is subject to database copyrights held by Dauntless Aviation and may not be copied without the express permission of Dauntless Aviation - licenses for use of part of all of this data are available for purchase; enquire via the Dauntless Aviation helpdesk. A number of mechanisms and markers exist in the database to protect against and identify infringement / copyright. Automated queries against this website are strictly prohibited, and all activity is logged and analyzed.